Location: Bletchingley
(51.2333°N, 0.1000°W)
Time: 22:46:29
(UTC+00:00)

ATLAS 3B R/B - Pass Details

Date: 18 September 2020
Orbit: 1016 x 1179 km, 63.8° (Epoch: 04 October)

Event Time Altitude Azimuth Distance (km) Brightness Sun altitude
Rises 21:20:00 0° 315° (NW) 3,820 6.9 -28.0°
Reaches altitude 10° 21:22:35 10° 316° (NW) 2,882 5.9 -28.3°
Maximum altitude 21:29:26 90° 221° (SW) 1,092 2.6 -29.1°
Enters shadow 21:30:03 77° 139° (SE) 1,121 2.5 -29.1°
